Wind_Speed
39 39 38 38 38 38 37 37 37 36 36 36 35 34 33 33 32 31 30 30 29 28 28 27 27 26 25 25 24 24 24 24 25 25 26 26 26 25 25 25 24 24 24 24 24 24 25 25 25 25 25 25 25 25 25 25 25 25 26 26 25 25 25 25 25 24 24 24 24
39 39 39 38 38 38 37 37 37 36 35 35 34 34 33 32 31 30 29 29 28 28 27 27 26 26 25 24 24 24 24 24 25 25 26 26 25 25 24 24 24 23 23 23 23 24 24 24 24 24 24 24 24 24 25 24 25 25 26 26 26 26 26 26 26 25 25 25 25
40 39 39 39 38 38 37 37 36 35 35 34 34 33 32 31 30 29 29 28 28 28 27 27 26 26 25 24 24 24 25 25 25 26 26 25 25 24 24 23 23 23 23 23 23 23 23 23 23 23 24 23 24 24 24 24 24 25 26 26 26 26 27 27 26 26 26 26 26
40 40 39 39 38 37 36 35 35 34 34 33 33 32 32 31 30 29 28 28 28 28 27 27 26 26 25 25 25 25 25 25 25 26 25 25 25 24 23 23 23 23 22 22 22 22 22 22 23 23 23 23 23 23 24 24 24 25 26 26 26 27 27 28 27 27 27 27 27
40 40 39 38 37 36 35 34 34 33 33 32 32 32 31 30 29 29 28 28 28 28 27 27 26 26 26 25 25 25 25 25 26 26 25 25 24 24 23 23 23 22 22 22 22 22 22 22 22 22 22 22 23 23 23 23 24 25 26 26 27 28 28 28 28 28 28 28 28
39 39 38 37 36 36 35 34 33 33 32 32 31 30 30 29 28 28 28 28 27 27 27 27 27 27 26 26 26 25 25 26 26 26 25 25 24 24 23 23 22 22 22 22 22 22 22 22 22 22 22 22 22 22 23 23 24 25 26 27 28 28 29 29 29 29 29 29 29
39 38 37 37 36 35 34 33 33 32 32 31 30 29 29 28 28 27 27 27 27 27 27 27 27 27 27 27 26 26 26 26 26 26 25 25 24 24 23 23 22 22 22 22 22 22 22 22 22 22 22 22 22 22 23 23 24 25 26 28 28 29 29 30 30 30 30 30 29
38 37 37 36 35 34 33 32 32 31 31 30 29 28 28 27 27 27 27 27 27 27 27 28 28 27 27 27 27 26 26 26 26 26 25 25 24 24 23 23 23 22 22 22 22 22 22 22 22 22 22 22 22 22 23 23 24 25 26 28 28 29 29 30 30 30 30 30 30
38 37 36 35 34 34 33 32 32 31 31 30 29 28 27 27 27 27 27 27 27 27 27 28 28 28 28 28 27 27 27 26 26 26 26 25 25 24 24 23 23 23 22 22 22 22 22 22 22 22 22 22 23 23 23 24 24 25 26 27 28 29 30 30 30 31 31 31 31
37 36 35 35 34 34 33 33 32 32 31 30 29 28 28 27 27 27 27 27 27 27 27 28 28 28 28 28 28 27 27 27 27 27 26 26 25 25 24 24 23 23 23 23 23 23 23 23 23 23 23 23 23 23 24 24 25 25 26 27 28 29 30 30 30 31 31 32 32
36 35 35 34 34 34 34 34 33 33 32 31 30 29 29 28 28 27 27 27 27 27 27 27 28 28 29 29 28 28 28 27 27 27 27 27 26 25 25 24 23 23 23 23 23 23 23 24 24 24 24 24 24 24 24 25 25 25 26 27 28 29 30 30 31 31 32 32 33
37 36 36 35 35 35 35 35 35 34 33 33 32 31 30 29 28 28 27 27 27 27 26 27 27 28 28 29 28 28 28 28 28 28 28 28 27 26 25 25 24 24 24 24 24 24 24 24 24 25 25 25 25 25 25 25 25 25 26 26 27 28 29 30 31 31 32 32 33
38 38 37 37 36 36 36 36 36 35 35 34 33 32 32 31 29 29 28 28 27 26 26 26 27 27 28 28 28 28 28 29 29 29 29 28 28 27 26 25 25 25 24 24 25 25 25 25 25 26 26 26 26 26 25 25 25 25 26 26 27 28 29 30 31 31 32 32 33
40 40 39 39 38 38 38 37 37 36 36 35 35 34 33 32 31 30 30 29 28 27 26 26 26 26 27 27 28 28 29 29 29 29 29 29 28 28 27 27 26 26 25 25 26 26 26 26 26 26 26 26 26 26 26 25 25 25 26 27 27 28 29 30 30 31 32 32 33
42 41 41 40 40 39 39 38 38 38 37 36 36 35 34 34 33 32 31 30 29 28 27 26 26 25 25 26 27 28 29 29 30 30 30 30 30 29 28 28 27 27 26 26 26 26 26 26 26 26 26 26 26 26 26 26 25 25 26 26 27 28 29 30 30 31 32 32 32
43 43 42 42 41 41 40 40 39 39 38 38 37 36 36 35 35 34 33 32 31 29 28 27 26 25 25 25 26 27 29 30 31 31 31 31 31 30 30 29 28 28 27 27 26 26 26 26 26 26 25 25 25 25 26 26 26 26 26 26 27 28 29 30 31 31 32 32 32
44 44 43 43 43 42 42 41 41 40 40 39 38 38 37 37 36 35 35 34 33 32 30 29 27 26 25 25 26 27 29 30 31 32 33 33 32 32 31 30 29 28 28 27 27 26 26 26 25 25 25 25 25 25 25 26 26 26 26 27 27 28 29 30 31 31 32 32 32
45 44 44 44 44 43 43 43 42 42 41 40 40 39 38 38 37 37 36 35 35 34 32 31 29 27 26 25 26 27 28 30 31 32 33 33 33 33 32 31 30 29 28 28 27 27 26 26 25 25 25 25 25 25 25 26 26 26 27 27 28 29 29 30 31 31 32 32 32
45 45 45 45 45 45 44 44 43 43 42 42 41 41 40 40 39 39 38 37 36 35 34 33 32 30 28 27 26 27 28 29 31 32 33 34 34 33 33 32 31 30 29 28 28 27 27 26 26 26 26 26 25 26 26 26 26 27 27 28 28 29 29 30 31 31 32 32 32
46 46 46 46 46 46 45 45 44 44 44 43 43 43 42 42 42 41 40 39 38 37 36 36 34 33 31 29 28 27 27 28 30 32 33 34 34 34 34 33 32 31 30 30 29 28 28 28 27 27 26 26 26 26 26 27 27 27 28 28 28 29 29 30 31 31 31 31 32
47 47 47 46 46 46 45 45 45 45 44 44 44 44 44 44 44 43 42 41 40 39 38 38 37 36 34 32 30 29 28 29 30 31 33 34 35 35 34 34 33 32 32 31 30 30 29 29 28 28 27 27 27 27 27 27 27 28 28 28 28 29 29 30 30 31 31 32 32
47 47 47 46 46 46 45 45 45 45 45 45 45 45 45 45 45 44 44 43 41 40 40 39 38 37 36 34 32 31 30 29 30 31 33 34 35 35 35 35 34 33 33 32 32 31 31 30 30 29 28 28 28 27 27 27 27 27 28 28 28 29 29 30 30 30 31 32 32
47 47 47 46 46 46 45 45 45 45 45 45 45 46 46 46 46 45 44 43 42 41 41 40 39 38 37 36 34 33 31 31 31 31 32 34 35 36 36 35 35 35 34 34 33 33 32 31 30 30 29 29 28 28 28 27 27 27 27 28 28 29 29 29 30 30 31 32 33
48 47 47 47 47 46 46 45 45 45 45 46 46 47 47 47 46 46 45 44 43 42 41 40 39 39 38 37 36 35 33 32 31 32 32 34 35 36 36 36 36 35 35 35 34 34 33 32 31 30 30 29 28 27 27 27 27 27 27 28 28 28 28 29 29 30 31 32 33
49 49 48 48 48 47 46 46 45 45 45 46 47 47 47 47 46 45 44 43 42 41 40 40 39 39 39 38 38 36 35 33 32 32 33 34 35 36 36 36 36 36 36 35 34 34 33 32 31 30 29 28 27 27 26 26 26 27 27 27 27 27 28 28 29 30 31 32 32
50 50 50 49 49 48 47 46 45 45 45 46 46 46 46 45 44 43 42 41 40 39 39 39 39 39 39 39 39 37 36 34 33 33 33 34 35 35 36 36 36 36 36 35 34 33 32 31 30 29 28 27 27 26 26 26 26 26 26 26 26 27 27 28 29 30 31 31 32
51 51 50 50 49 48 46 46 45 44 44 44 44 44 43 42 41 40 39 39 38 38 38 38 38 39 39 40 39 38 36 35 34 33 33 34 34 35 36 36 36 36 35 34 33 32 31 30 29 28 27 27 26 26 26 26 25 25 25 25 26 26 27 28 29 30 31 31 31
52 51 51 50 48 47 46 45 44 43 42 42 42 41 41 40 39 38 38 37 37 37 37 37 38 39 39 40 39 38 37 35 34 33 33 34 34 35 35 36 35 35 34 32 31 30 29 29 28 27 26 26 26 25 25 24 24 24 25 25 26 26 27 28 29 30 30 31 31
53 52 51 49 48 46 45 43 42 41 40 40 40 40 39 38 38 37 37 37 37 37 37 38 38 39 39 39 39 38 36 35 34 33 33 33 34 34 35 35 35 34 32 31 30 29 28 27 27 26 25 25 24 24 23 23 23 24 24 25 26 27 28 29 29 30 30 30 30
53 52 51 49 47 45 43 41 40 39 39 39 39 39 39 38 37 37 37 37 37 37 37 38 39 39 39 39 38 37 35 34 33 33 33 33 33 34 34 34 33 32 30 29 28 28 27 27 26 25 24 24 23 23 23 23 23 24 25 26 27 28 28 29 29 29 29 29 28
51 50 49 47 45 43 41 40 39 38 39 39 39 39 38 38 38 37 37 37 37 37 38 38 39 39 38 38 37 36 34 33 32 32 32 32 32 33 32 32 31 30 29 28 27 27 26 26 25 24 23 23 23 23 23 23 24 25 26 27 28 28 28 28 28 28 28 27 26
46 46 46 45 43 42 40 39 39 39 39 39 39 39 38 38 38 38 37 37 37 37 38 38 38 38 38 37 36 34 33 32 31 31 31 31 31 31 30 30 29 28 28 27 27 26 26 25 24 23 23 23 23 23 24 25 25 26 27 28 28 28 28 28 27 27 26 25 25
42 43 43 42 41 40 40 39 39 39 40 40 39 39 38 38 38 38 38 37 37 37 38 38 38 38 37 36 35 33 32 31 30 30 30 29 29 29 29 29 28 28 27 27 26 25 25 24 23 23 23 23 24 24 25 26 26 27 28 28 28 27 27 26 26 25 24 24 24
39 40 40 40 40 40 40 40 40 40 40 40 39 38 38 38 38 38 37 37 37 37 37 37 37 37 36 35 33 32 31 30 29 28 28 28 28 28 28 28 27 27 26 26 25 25 24 24 23 23 24 24 25 25 26 27 28 28 28 27 27 26 26 25 24 24 23 23 24
37 38 38 39 39 40 40 40 40 40 40 40 39 38 38 38 38 37 37 36 36 36 36 36 36 35 34 33 31 29 28 28 27 27 27 27 27 27 27 26 26 25 25 25 24 24 24 24 24 24 25 25 26 27 27 28 28 28 27 26 26 25 24 24 23 23 23 23 24
36 37 38 39 39 40 40 40 40 40 39 39 39 38 38 37 37 36 36 35 35 35 35 35 34 33 31 29 28 27 26 26 26 26 26 27 26 26 25 25 25 25 24 24 24 24 24 24 25 25 26 26 27 27 27 27 27 26 25 25 24 24 23 23 23 23 24 24 25
36 37 37 38 38 38 38 39 39 38 38 38 38 37 37 36 35 35 34 34 33 33 33 32 31 29 28 26 26 25 25 25 25 26 26 26 25 25 24 24 24 24 24 24 24 24 24 25 25 26 27 27 27 27 26 26 25 24 24 24 23 23 23 23 23 23 24 25 25
35 35 35 36 36 36 36 37 37 37 37 36 36 35 35 34 33 33 32 32 31 30 29 28 27 26 25 25 24 25 25 25 25 25 25 25 24 24 23 23 23 23 23 23 24 24 24 25 26 27 27 27 27 26 25 24 23 23 23 23 23 23 23 23 23 24 24 25 25
32 32 32 32 32 33 34 34 34 34 34 34 33 32 32 31 30 30 29 29 28 27 26 25 24 24 24 24 24 24 24 24 24 24 24 23 23 23 23 23 23 23 23 23 23 24 24 25 26 26 26 25 25 24 24 23 22 22 22 22 22 22 22 23 23 24 24 25 25
29 29 29 29 29 30 30 31 31 31 30 30 29 28 28 28 27 27 26 26 25 24 24 24 23 24 24 24 24 24 23 23 23 23 23 23 23 22 22 22 22 22 22 23 23 23 23 24 24 24 24 23 23 23 23 23 22 22 21 22 21 22 22 23 23 24 24 24 24
27 26 26 26 26 27 27 27 27 27 26 26 25 25 25 25 25 25 24 24 24 24 24 23 23 23 23 23 23 23 22 22 22 22 22 22 22 22 22 21 21 22 22 22 22 22 23 23 23 23 23 23 23 23 23 22 22 21 21 21 21 22 22 23 23 24 24 24 24
Wind_Direction
228 229 230 232 232 233 235 236 237 238 240 241 242 244 246 247 247 248 249 250 250 250 250 249 249 248 246 245 244 243 241 240 240 240 241 242 242 243 243 243 243 243 244 244 246 247 248 249 250 251 252 252 252 251 250 250 248 247 246 246 246 247 248 248 248 249 251 254 256
229 230 231 232 234 235 236 237 238 239 241 242 244 245 247 248 248 249 249 249 249 248 248 247 246 245 243 242 240 239 238 238 238 239 240 241 242 242 242 242 242 242 242 243 244 246 248 249 250 251 253 253 253 252 251 252 250 248 246 246 247 247 247 248 248 249 251 253 255
229 230 232 233 234 236 237 238 239 241 242 243 244 245 246 247 247 248 247 247 246 245 245 244 243 241 240 238 237 236 236 237 238 239 240 241 241 241 240 240 240 240 240 242 244 246 248 250 251 252 254 255 254 254 253 253 251 249 247 247 248 248 248 248 248 249 250 251 253
230 231 232 233 235 236 238 239 241 242 243 243 244 244 245 245 245 245 244 244 243 242 242 241 240 238 237 235 234 234 234 236 237 238 239 240 240 239 238 238 238 238 239 241 243 246 248 250 252 253 254 255 256 255 255 254 252 250 249 249 249 249 248 248 249 249 249 250 252
230 231 233 234 236 238 239 240 242 242 242 242 243 243 243 243 243 242 241 241 240 240 239 238 237 236 235 234 233 232 233 234 236 237 238 238 237 237 236 236 236 237 239 241 244 246 248 250 252 253 255 255 256 256 255 255 253 251 250 250 250 250 249 249 249 249 249 250 252
230 232 233 235 237 238 239 240 241 241 241 241 241 241 241 240 240 239 239 239 239 238 237 236 235 234 233 232 231 231 232 233 235 236 236 236 235 234 234 234 235 237 239 242 245 247 249 250 252 253 254 255 255 256 255 254 253 251 250 249 250 250 250 249 249 249 249 250 251
231 232 233 235 236 237 237 238 238 239 239 239 239 238 238 238 237 238 238 238 237 236 235 234 233 232 232 231 231 231 232 233 234 235 235 234 233 232 232 233 235 237 240 243 245 247 249 250 251 253 254 254 255 255 254 253 252 251 250 250 250 250 250 250 250 250 250 250 251
232 233 233 234 234 235 235 235 235 236 236 236 235 235 235 235 236 236 236 236 236 235 234 233 232 232 232 232 232 232 232 232 233 233 233 232 231 231 232 233 235 238 241 243 245 246 248 250 251 252 253 253 254 254 253 253 252 252 251 251 250 251 251 251 251 251 251 251 251
231 232 232 232 232 232 232 232 232 233 233 233 232 232 233 233 234 234 234 234 235 234 234 233 232 232 232 232 233 233 233 232 231 231 231 230 230 230 231 233 236 238 241 243 245 246 247 249 250 251 252 252 253 253 253 253 253 252 252 251 251 251 252 252 252 252 252 252 252
229 229 229 229 228 228 228 229 230 230 231 231 231 231 231 231 231 231 232 232 233 233 233 233 232 232 233 233 234 234 233 232 230 229 229 229 229 230 231 234 236 239 241 243 244 245 246 247 249 249 250 251 252 252 253 252 253 253 252 251 251 252 253 253 253 253 252 252 253
227 227 226 226 225 225 226 227 228 228 229 229 229 229 229 229 229 229 230 231 231 232 232 233 232 233 234 235 235 235 234 232 230 228 227 227 228 230 232 235 237 239 241 242 243 244 245 246 247 248 249 249 250 251 252 252 253 253 252 252 252 252 253 254 253 253 253 253 254
226 225 224 224 223 224 225 226 227 227 228 228 227 227 227 227 227 227 228 229 230 231 231 232 233 234 234 235 236 236 234 232 230 228 227 227 228 229 232 234 236 239 240 241 242 243 244 245 246 247 248 249 250 251 252 253 253 253 253 252 252 253 253 254 254 253 253 253 254
225 224 224 223 223 223 224 225 226 226 227 227 226 226 226 226 226 226 227 227 229 229 230 231 232 234 235 236 236 236 235 233 230 228 227 227 227 229 231 233 235 237 238 239 240 241 243 244 245 246 247 249 250 251 252 254 254 253 253 253 253 253 254 255 254 254 253 253 254
224 224 223 223 223 223 224 225 226 226 226 227 226 226 226 226 226 226 227 227 228 228 229 230 232 233 235 236 236 236 235 233 231 229 228 227 228 229 231 233 234 236 237 238 239 240 242 243 245 246 248 249 251 252 253 254 255 254 254 253 254 254 255 256 256 255 254 253 254
224 224 224 223 223 224 224 225 226 226 226 227 227 227 227 227 227 227 227 228 228 228 229 230 231 233 234 235 236 236 235 234 232 230 229 228 228 229 230 232 233 235 236 237 238 240 242 243 245 247 248 250 251 252 253 254 255 255 255 254 255 255 256 256 256 255 254 254 254
225 224 224 225 225 225 225 225 226 226 227 227 227 228 228 228 229 229 229 229 229 229 229 230 231 233 234 235 235 235 235 234 232 231 229 229 228 229 230 231 233 234 235 237 238 240 241 243 245 247 248 250 251 252 254 255 256 256 256 255 255 255 255 256 256 255 254 254 253
225 225 225 226 226 226 226 226 227 227 228 228 229 229 229 230 230 231 231 230 230 230 230 231 232 233 233 234 235 235 235 234 233 232 230 230 229 230 230 231 232 234 235 236 238 240 241 243 245 246 248 250 251 252 253 255 256 256 256 256 255 255 255 255 255 255 254 253 252
226 226 227 227 227 228 228 228 228 229 230 230 231 231 232 232 232 233 233 233 233 232 232 233 233 233 234 234 235 235 235 235 234 233 232 231 231 231 231 232 232 234 235 236 238 240 241 243 244 246 247 249 251 252 253 255 256 256 257 256 255 255 254 254 255 254 253 252 251
228 228 228 229 229 230 230 230 231 231 232 233 233 234 235 235 235 235 235 235 235 235 235 235 235 235 235 235 235 236 237 236 235 234 233 232 232 232 232 232 233 234 235 236 238 239 241 242 244 245 247 249 251 252 253 255 256 257 257 256 256 255 255 254 254 254 253 252 251
229 230 230 231 231 232 232 233 234 234 235 236 237 237 238 239 239 239 238 238 238 238 237 236 236 236 235 236 236 236 237 237 236 235 234 233 233 232 232 232 233 234 235 236 237 239 240 242 243 245 247 249 251 252 254 256 256 257 257 257 257 256 256 255 255 254 254 252 251
231 232 232 233 234 235 235 236 237 238 239 240 241 241 242 242 242 242 242 241 240 239 238 237 237 236 236 236 236 236 238 238 238 236 235 234 233 233 233 233 233 234 235 236 237 239 240 242 243 245 247 249 251 253 255 256 257 258 259 259 258 258 257 256 255 255 254 253 251
233 234 234 235 236 237 238 239 240 241 242 243 244 245 245 245 245 245 245 244 242 240 239 238 237 236 236 235 236 236 238 239 239 238 236 235 234 233 233 233 233 233 234 236 237 239 240 242 244 246 248 250 252 254 255 257 258 260 260 260 260 259 258 257 256 255 254 253 252
234 235 236 237 238 239 240 241 242 244 245 246 247 248 249 249 249 248 247 245 243 241 239 238 237 236 235 234 235 236 237 239 240 239 237 236 234 233 232 232 232 233 234 236 237 239 241 242 245 247 249 251 252 254 256 258 259 261 261 261 261 260 259 258 257 256 255 255 254
236 237 238 239 240 241 242 243 244 246 248 249 251 252 252 252 252 250 248 246 243 241 239 237 236 235 233 233 233 234 236 239 240 240 239 236 234 233 232 232 232 233 234 236 237 239 241 243 246 248 250 252 253 255 257 259 261 261 261 261 261 261 260 259 258 257 256 255 255
237 238 240 240 241 242 243 244 246 248 250 252 253 254 254 254 253 252 249 246 243 240 238 237 235 233 232 231 231 233 236 239 240 241 239 237 235 233 232 232 232 233 235 236 238 240 242 244 246 248 250 252 254 256 258 259 260 261 261 261 261 261 261 261 260 259 257 256 255
239 239 240 241 242 243 244 246 248 250 251 253 254 254 254 254 253 251 248 245 241 238 236 235 233 231 230 229 230 232 235 238 240 241 240 238 236 234 233 232 233 234 235 237 238 240 242 244 246 248 250 253 254 256 257 258 259 260 261 262 262 262 262 261 260 259 257 255 254
240 241 242 243 244 245 246 248 249 250 251 251 252 252 253 252 251 249 245 242 238 235 233 232 230 229 229 229 230 232 235 238 240 241 240 238 236 234 233 233 233 234 236 237 239 240 242 244 246 248 250 252 253 254 256 257 259 260 262 262 262 262 261 260 258 257 255 254 253
243 243 244 244 246 247 248 248 248 248 248 249 249 250 250 249 248 245 241 238 234 232 230 229 228 228 228 228 229 231 234 237 239 240 240 238 236 234 233 233 234 235 236 237 238 239 241 243 245 247 249 250 251 253 255 257 259 261 262 262 262 261 259 258 256 254 253 251 251
245 245 246 247 247 247 247 246 245 244 245 246 247 247 247 246 244 241 237 234 231 229 227 227 227 227 227 227 229 231 234 237 239 239 239 237 235 234 233 233 234 234 235 236 237 238 240 242 244 246 247 248 250 252 254 257 259 260 261 261 260 259 257 254 253 251 250 250 250
246 246 247 247 246 245 243 242 241 241 242 243 244 245 244 242 240 237 234 231 228 227 226 225 226 226 226 227 229 231 233 236 238 239 238 236 235 234 233 233 234 234 235 235 236 237 239 240 242 244 245 247 249 251 253 256 258 259 258 258 257 256 254 251 250 249 249 249 250
244 244 244 243 242 240 239 237 237 238 240 242 243 243 242 240 237 234 232 229 227 225 225 224 224 225 226 227 229 231 234 236 238 238 237 236 235 234 234 234 234 234 234 234 235 236 237 239 240 242 244 245 247 250 252 254 255 256 256 255 254 252 250 249 248 248 248 249 250
239 239 238 237 236 235 235 234 235 237 239 241 241 240 239 237 234 232 230 228 226 224 223 223 223 224 226 227 229 231 234 236 237 237 237 236 235 234 234 233 233 232 232 232 233 234 235 237 239 240 242 243 245 247 249 250 251 252 252 251 250 249 248 247 247 247 248 249 251
233 232 232 231 231 232 232 234 235 237 238 239 239 238 236 234 232 230 229 227 225 223 222 222 223 224 225 227 229 232 234 236 236 236 235 234 233 232 232 231 231 231 231 231 232 233 234 236 237 239 240 242 243 244 245 246 247 248 248 248 248 247 247 247 247 247 248 250 252
230 230 229 230 230 231 233 234 235 236 237 237 236 235 233 231 229 228 227 226 224 223 222 222 223 225 226 228 230 232 234 234 234 234 233 232 231 230 229 229 229 229 229 230 231 232 233 235 236 238 240 241 241 242 243 244 245 246 246 247 247 247 247 247 248 248 249 251 253
231 231 231 231 232 233 234 235 235 235 235 235 234 232 230 229 227 226 225 224 223 222 222 222 224 226 227 229 231 232 232 232 232 231 230 230 229 229 228 228 228 229 229 231 232 233 234 235 237 239 240 241 241 242 242 243 245 246 246 247 247 247 247 247 248 249 250 252 254
234 234 234 234 235 235 235 235 235 235 234 233 231 230 228 227 226 225 224 223 222 222 222 223 225 227 228 229 230 230 230 229 229 229 228 228 228 227 227 227 228 229 230 231 233 234 235 237 238 240 242 244 244 243 244 244 245 246 247 247 247 247 247 247 248 250 252 254 256
237 237 237 237 237 237 236 235 234 233 232 231 229 228 226 225 224 224 223 223 222 222 223 225 226 228 228 229 228 228 227 226 226 226 226 226 226 226 226 227 228 230 231 233 234 235 237 238 240 243 245 247 247 246 246 246 246 246 247 247 246 246 247 248 250 252 254 256 258
240 240 239 239 238 237 236 234 233 231 230 229 227 226 225 224 223 223 223 222 221 222 223 225 226 226 226 225 224 224 223 223 223 223 223 223 223 223 224 226 228 230 232 233 235 236 238 240 242 246 249 250 250 249 249 248 248 247 247 247 246 247 248 250 253 255 257 260 262
240 239 237 236 235 233 232 231 230 228 227 226 225 224 223 222 222 221 221 221 219 220 220 221 222 222 221 220 220 220 220 220 221 221 221 221 221 222 224 225 228 230 232 234 236 238 240 242 245 248 251 252 252 251 251 250 249 249 248 248 249 250 251 254 257 259 261 263 265
237 234 232 230 228 227 227 226 225 225 224 223 221 220 220 219 219 219 218 216 215 215 215 216 217 217 217 216 216 216 217 218 218 219 219 220 221 222 224 226 229 231 233 236 238 240 242 244 246 249 250 250 250 250 250 250 250 251 251 252 253 254 256 258 260 262 265 266 267
231 228 225 223 222 221 221 221 220 220 218 217 216 215 216 216 215 214 213 211 211 211 212 212 213 213 213 213 213 214 214 215 216 217 219 220 222 224 226 228 230 233 235 237 239 241 242 244 245 246 247 247 247 248 248 249 250 252 253 255 256 258 260 262 263 265 266 267 268
Height
1498 1499 1500 1501 1502 1503 1504 1505 1506 1507 1508 1508 1509 1510 1511 1511 1512 1513 1514 1514 1515 1515 1516 1517 1517 1518 1519 1520 1520 1521 1522 1522 1522 1523 1523 1523 1524 1524 1525 1526 1526 1527 1527 1528 1528 1529 1529 1529 1530 1530 1531 1531 1532 1532 1532 1533 1533 1534 1534 1535 1535 1535 1536 1536 1536 1537 1537 1537 1537
1496 1497 1498 1499 1500 1501 1502 1503 1504 1504 1505 1506 1507 1508 1508 1509 1510 1511 1512 1512 1513 1513 1514 1515 1515 1516 1517 1518 1518 1519 1519 1520 1520 1521 1521 1522 1522 1523 1523 1524 1524 1525 1526 1526 1527 1527 1527 1528 1528 1528 1529 1529 1530 1530 1531 1531 1532 1532 1533 1533 1533 1534 1534 1534 1534 1535 1535 1536 1536
1493 1495 1496 1497 1498 1498 1499 1500 1501 1502 1503 1504 1505 1506 1507 1507 1508 1509 1510 1510 1511 1512 1512 1513 1513 1514 1515 1516 1516 1517 1517 1518 1518 1518 1519 1520 1520 1521 1522 1522 1523 1523 1524 1524 1525 1525 1526 1526 1527 1527 1527 1528 1528 1528 1529 1529 1530 1531 1531 1531 1532 1532 1532 1532 1533 1533 1533 1534 1534
1491 1492 1493 1494 1495 1496 1497 1498 1499 1500 1501 1502 1503 1504 1504 1505 1506 1507 1508 1508 1509 1509 1510 1511 1512 1512 1513 1514 1514 1515 1515 1516 1516 1517 1517 1518 1518 1519 1520 1520 1521 1522 1522 1523 1523 1523 1524 1524 1525 1525 1526 1526 1527 1527 1527 1528 1528 1529 1529 1530 1530 1530 1530 1531 1531 1531 1532 1532 1532
1489 1490 1491 1492 1493 1494 1495 1497 1498 1498 1499 1500 1501 1502 1503 1503 1504 1505 1506 1506 1507 1508 1508 1509 1510 1510 1511 1512 1513 1513 1513 1514 1514 1515 1515 1516 1517 1517 1518 1518 1519 1520 1520 1521 1521 1522 1522 1523 1523 1523 1524 1524 1525 1525 1526 1526 1527 1527 1528 1528 1528 1528 1528 1529 1529 1529 1529 1530 1530
1487 1488 1489 1490 1491 1493 1494 1495 1496 1497 1497 1498 1499 1500 1501 1501 1502 1503 1504 1504 1505 1506 1507 1507 1508 1508 1509 1510 1511 1511 1512 1512 1512 1513 1513 1514 1515 1515 1516 1517 1517 1518 1518 1519 1520 1520 1521 1521 1521 1522 1522 1523 1523 1523 1524 1524 1525 1525 1526 1526 1526 1526 1527 1527 1527 1527 1528 1528 1528
1484 1486 1487 1488 1489 1491 1492 1493 1493 1494 1495 1496 1497 1498 1498 1499 1500 1501 1502 1503 1503 1504 1505 1505 1506 1506 1507 1508 1508 1509 1510 1510 1510 1511 1511 1512 1513 1513 1514 1515 1516 1516 1517 1517 1518 1518 1519 1519 1520 1520 1520 1521 1521 1522 1522 1523 1523 1523 1524 1524 1524 1524 1524 1525 1525 1525 1526 1526 1526
1483 1484 1485 1486 1488 1488 1489 1491 1492 1493 1493 1494 1495 1496 1497 1498 1498 1499 1500 1501 1501 1502 1503 1503 1504 1504 1505 1506 1506 1507 1508 1508 1508 1509 1510 1510 1511 1512 1513 1513 1514 1514 1515 1515 1516 1517 1517 1518 1518 1518 1518 1519 1519 1520 1520 1520 1521 1521 1522 1522 1522 1523 1523 1523 1523 1523 1524 1524 1524
1480 1482 1483 1484 1485 1487 1488 1489 1490 1490 1491 1492 1493 1494 1495 1496 1497 1498 1498 1499 1499 1500 1501 1501 1502 1503 1503 1504 1504 1505 1506 1506 1507 1507 1508 1508 1509 1510 1510 1511 1512 1512 1513 1513 1514 1515 1515 1515 1516 1516 1517 1517 1518 1518 1518 1518 1519 1519 1520 1520 1521 1521 1521 1521 1521 1522 1522 1522 1522
1478 1479 1481 1482 1483 1485 1486 1487 1488 1488 1489 1490 1491 1492 1493 1494 1495 1495 1496 1497 1497 1498 1498 1499 1500 1501 1501 1502 1502 1503 1504 1504 1505 1505 1506 1506 1507 1508 1508 1509 1510 1510 1511 1512 1512 1513 1513 1513 1514 1514 1515 1515 1515 1516 1516 1517 1517 1518 1518 1518 1518 1519 1519 1519 1519 1520 1520 1520 1520
1476 1478 1479 1480 1481 1483 1484 1484 1485 1486 1487 1488 1489 1490 1491 1492 1493 1493 1494 1495 1495 1496 1497 1497 1498 1498 1499 1499 1500 1501 1502 1502 1503 1503 1504 1504 1505 1506 1506 1507 1508 1508 1509 1509 1510 1511 1511 1512 1512 1512 1513 1513 1513 1514 1514 1514 1515 1515 1516 1516 1517 1517 1517 1517 1518 1518 1518 1518 1518
1474 1476 1477 1478 1479 1481 1482 1482 1483 1484 1485 1486 1487 1488 1489 1490 1490 1491 1492 1493 1493 1494 1495 1495 1496 1496 1497 1498 1498 1499 1500 1500 1501 1502 1502 1503 1503 1504 1504 1505 1506 1506 1507 1508 1508 1508 1509 1509 1510 1510 1511 1511 1512 1512 1512 1513 1513 1513 1514 1514 1515 1515 1515 1515 1515 1516 1516 1516 1516
1473 1473 1475 1476 1477 1478 1479 1480 1481 1482 1483 1483 1485 1486 1487 1488 1488 1489 1490 1491 1491 1492 1493 1493 1494 1494 1495 1496 1496 1497 1498 1498 1499 1499 1500 1501 1501 1502 1502 1503 1503 1504 1505 1505 1506 1507 1507 1507 1508 1508 1509 1509 1509 1510 1510 1510 1511 1511 1512 1512 1513 1513 1513 1513 1513 1513 1514 1514 1514
1470 1471 1473 1473 1475 1476 1477 1478 1478 1479 1480 1481 1482 1483 1484 1485 1486 1487 1488 1488 1489 1490 1491 1491 1492 1492 1493 1493 1494 1495 1495 1496 1497 1498 1498 1498 1499 1499 1500 1501 1501 1502 1503 1503 1504 1504 1505 1505 1506 1506 1507 1507 1508 1508 1508 1508 1509 1509 1510 1510 1510 1510 1510 1511 1511 1512 1512 1512 1513
1468 1469 1470 1471 1472 1473 1474 1475 1476 1477 1478 1479 1480 1481 1482 1483 1484 1485 1486 1486 1487 1488 1488 1489 1490 1490 1491 1492 1492 1493 1493 1494 1495 1495 1496 1496 1497 1497 1498 1498 1499 1500 1500 1501 1502 1502 1503 1503 1504 1504 1505 1505 1506 1506 1506 1506 1507 1507 1508 1508 1508 1508 1508 1509 1509 1509 1510 1510 1510
1465 1467 1468 1469 1470 1471 1472 1473 1474 1475 1476 1477 1478 1479 1480 1481 1482 1482 1483 1484 1485 1486 1486 1487 1488 1488 1489 1489 1490 1491 1491 1492 1492 1493 1493 1494 1494 1495 1496 1496 1497 1498 1498 1499 1499 1500 1501 1501 1502 1503 1503 1503 1504 1504 1504 1504 1505 1505 1505 1506 1506 1506 1507 1507 1507 1507 1508 1508 1508
1463 1464 1465 1466 1468 1468 1469 1470 1471 1472 1473 1474 1475 1476 1477 1478 1479 1480 1481 1482 1483 1483 1484 1485 1485 1486 1487 1487 1488 1488 1489 1489 1490 1490 1491 1492 1492 1493 1493 1494 1495 1495 1496 1497 1498 1498 1499 1499 1500 1500 1501 1501 1502 1502 1502 1502 1503 1503 1503 1503 1504 1504 1504 1505 1505 1505 1506 1506 1506
1461 1462 1463 1464 1465 1466 1467 1468 1469 1470 1471 1472 1473 1474 1475 1476 1477 1477 1478 1479 1480 1481 1482 1483 1483 1484 1484 1485 1485 1486 1487 1487 1488 1488 1489 1489 1490 1491 1491 1492 1493 1493 1494 1495 1495 1496 1496 1497 1498 1498 1498 1499 1499 1499 1500 1500 1500 1501 1501 1501 1502 1502 1502 1503 1503 1503 1503 1504 1504
1458 1459 1461 1462 1463 1463 1465 1466 1467 1468 1469 1470 1471 1472 1473 1473 1474 1475 1476 1477 1478 1478 1479 1480 1481 1482 1482 1483 1483 1483 1484 1485 1485 1486 1487 1487 1488 1488 1489 1490 1491 1491 1492 1493 1493 1493 1494 1494 1495 1495 1496 1496 1497 1497 1498 1498 1498 1498 1499 1499 1499 1500 1500 1500 1501 1501 1501 1502 1502
1456 1457 1458 1459 1460 1461 1463 1464 1465 1466 1467 1468 1468 1469 1470 1471 1472 1473 1473 1474 1475 1476 1477 1478 1478 1479 1480 1480 1481 1481 1482 1483 1483 1484 1484 1485 1486 1486 1487 1488 1488 1489 1489 1490 1491 1491 1492 1492 1493 1493 1493 1494 1494 1495 1495 1495 1496 1496 1496 1497 1497 1498 1498 1498 1498 1499 1499 1500 1500
1454 1455 1456 1457 1458 1459 1461 1462 1463 1464 1465 1465 1466 1467 1467 1468 1469 1470 1471 1472 1473 1474 1474 1475 1476 1476 1477 1478 1478 1479 1480 1480 1481 1481 1482 1483 1483 1484 1484 1485 1486 1486 1487 1488 1488 1488 1489 1489 1490 1490 1491 1491 1492 1492 1493 1493 1493 1494 1494 1495 1495 1495 1496 1496 1496 1497 1497 1498 1498
1452 1453 1454 1455 1456 1457 1458 1459 1461 1461 1462 1463 1463 1464 1464 1465 1466 1467 1468 1469 1470 1471 1471 1472 1473 1473 1474 1475 1476 1477 1477 1478 1478 1479 1479 1480 1481 1481 1482 1483 1483 1484 1484 1485 1485 1486 1486 1487 1487 1488 1488 1489 1489 1490 1490 1490 1491 1491 1492 1492 1493 1493 1493 1494 1494 1494 1495 1495 1496
1449 1450 1451 1452 1453 1455 1456 1457 1458 1458 1459 1459 1460 1461 1461 1462 1463 1464 1465 1466 1467 1467 1468 1469 1470 1471 1472 1473 1473 1474 1474 1475 1476 1476 1477 1477 1478 1478 1479 1480 1480 1481 1481 1482 1483 1483 1483 1484 1484 1485 1486 1486 1487 1487 1488 1488 1489 1489 1490 1490 1490 1491 1491 1492 1492 1493 1493 1493 1493
1447 1448 1448 1449 1451 1452 1453 1454 1454 1455 1456 1456 1457 1457 1458 1458 1459 1460 1461 1462 1463 1464 1465 1466 1467 1468 1468 1470 1470 1471 1472 1472 1473 1473 1474 1474 1475 1476 1476 1477 1478 1478 1478 1479 1479 1480 1481 1481 1482 1483 1483 1484 1484 1485 1485 1486 1487 1487 1487 1488 1488 1488 1489 1489 1490 1490 1490 1491 1491
1444 1444 1445 1446 1447 1448 1449 1450 1451 1452 1453 1453 1453 1454 1454 1455 1456 1457 1458 1458 1460 1461 1462 1463 1463 1464 1465 1466 1467 1468 1469 1469 1470 1471 1471 1472 1472 1473 1473 1474 1475 1475 1476 1476 1477 1478 1478 1479 1479 1480 1481 1481 1482 1483 1483 1484 1484 1484 1485 1485 1486 1486 1487 1487 1488 1488 1488 1488 1489
1440 1441 1442 1443 1444 1445 1446 1447 1448 1449 1449 1450 1450 1450 1451 1452 1453 1453 1454 1455 1456 1457 1458 1459 1460 1461 1462 1463 1464 1465 1466 1467 1467 1468 1468 1469 1469 1470 1471 1471 1472 1472 1473 1473 1474 1475 1476 1477 1477 1478 1478 1479 1480 1480 1481 1481 1482 1482 1483 1483 1483 1484 1484 1484 1485 1485 1486 1486 1486
1437 1438 1438 1439 1440 1441 1443 1444 1445 1445 1446 1446 1447 1447 1448 1448 1449 1450 1451 1452 1453 1454 1455 1456 1457 1458 1459 1460 1461 1462 1463 1464 1464 1465 1466 1466 1467 1468 1468 1468 1469 1469 1470 1471 1472 1473 1473 1474 1475 1475 1476 1477 1477 1478 1478 1478 1479 1480 1480 1481 1481 1482 1482 1482 1482 1483 1483 1484 1484
1433 1434 1435 1436 1437 1438 1439 1440 1441 1442 1443 1443 1444 1444 1445 1446 1446 1447 1448 1449 1450 1451 1452 1453 1453 1454 1455 1457 1458 1459 1460 1461 1462 1462 1463 1464 1464 1465 1466 1466 1467 1467 1468 1469 1470 1471 1471 1472 1472 1473 1473 1474 1474 1475 1475 1476 1477 1477 1478 1478 1478 1479 1479 1479 1480 1480 1481 1482 1482
1429 1431 1432 1432 1433 1434 1435 1436 1437 1438 1439 1440 1441 1441 1442 1443 1443 1444 1445 1446 1447 1448 1449 1449 1450 1451 1452 1453 1455 1456 1457 1458 1459 1460 1460 1461 1462 1463 1463 1464 1464 1465 1466 1467 1468 1468 1469 1469 1470 1470 1471 1471 1472 1473 1473 1473 1474 1474 1475 1475 1476 1476 1477 1477 1478 1478 1479 1479 1480
1426 1427 1428 1428 1430 1431 1432 1433 1434 1435 1436 1437 1437 1438 1439 1440 1441 1442 1443 1443 1444 1445 1446 1447 1448 1448 1449 1451 1452 1453 1454 1455 1456 1457 1458 1458 1459 1460 1461 1462 1462 1463 1464 1465 1465 1466 1466 1467 1467 1468 1468 1469 1469 1470 1470 1471 1471 1472 1472 1473 1473 1473 1474 1475 1475 1476 1477 1478 1478
1421 1422 1423 1425 1426 1427 1428 1429 1431 1432 1433 1433 1434 1435 1436 1437 1438 1439 1440 1441 1442 1443 1443 1444 1445 1446 1447 1448 1449 1451 1452 1453 1454 1454 1455 1456 1457 1458 1459 1460 1461 1461 1462 1463 1463 1463 1464 1464 1465 1465 1466 1466 1467 1467 1468 1468 1468 1469 1469 1470 1470 1471 1472 1473 1473 1474 1475 1476 1477
1417 1418 1419 1421 1422 1424 1425 1426 1427 1428 1429 1430 1431 1432 1433 1434 1435 1436 1437 1438 1439 1440 1441 1442 1443 1444 1445 1446 1447 1448 1449 1450 1451 1452 1453 1454 1455 1456 1457 1458 1459 1459 1460 1460 1461 1461 1462 1462 1463 1463 1463 1464 1464 1465 1465 1466 1466 1467 1467 1468 1468 1469 1470 1471 1472 1472 1473 1474 1474
1413 1414 1416 1417 1419 1420 1422 1423 1423 1425 1426 1427 1428 1429 1430 1431 1432 1433 1434 1436 1437 1438 1439 1440 1441 1442 1443 1443 1445 1446 1447 1448 1449 1450 1451 1452 1453 1454 1455 1456 1457 1457 1458 1458 1458 1459 1459 1460 1460 1461 1461 1462 1462 1463 1463 1463 1464 1464 1465 1466 1466 1467 1468 1469 1470 1471 1471 1472 1472
1410 1412 1413 1414 1416 1417 1418 1419 1420 1421 1423 1423 1424 1426 1427 1428 1429 1430 1432 1433 1434 1436 1437 1438 1439 1440 1441 1442 1443 1443 1444 1446 1447 1448 1449 1450 1451 1452 1453 1453 1454 1455 1456 1456 1457 1457 1458 1458 1458 1458 1459 1459 1460 1461 1461 1462 1462 1463 1463 1464 1465 1466 1467 1467 1468 1468 1469 1470 1470
1408 1409 1410 1412 1413 1414 1415 1416 1418 1418 1419 1420 1421 1423 1424 1425 1427 1428 1429 1431 1432 1433 1435 1436 1437 1438 1439 1440 1441 1442 1443 1444 1445 1446 1447 1448 1449 1450 1451 1452 1453 1453 1454 1454 1455 1455 1456 1456 1457 1457 1457 1458 1458 1459 1459 1460 1460 1461 1462 1463 1464 1464 1465 1466 1466 1467 1467 1468 1468
1406 1407 1408 1409 1410 1411 1413 1413 1415 1416 1417 1418 1418 1420 1421 1423 1424 1426 1427 1428 1430 1432 1433 1434 1435 1436 1437 1438 1439 1440 1441 1442 1443 1444 1445 1447 1448 1448 1449 1450 1451 1452 1452 1453 1453 1454 1454 1455 1455 1455 1456 1456 1457 1457 1458 1458 1459 1460 1461 1462 1462 1463 1463 1464 1464 1465 1465 1465 1466
1404 1405 1405 1407 1408 1409 1410 1411 1412 1413 1414 1415 1416 1417 1419 1420 1422 1423 1425 1427 1428 1430 1431 1433 1433 1434 1435 1436 1437 1438 1439 1440 1441 1443 1443 1445 1446 1447 1448 1448 1449 1450 1450 1451 1452 1452 1453 1453 1453 1454 1454 1454 1455 1456 1457 1458 1458 1459 1460 1460 1461 1461 1462 1462 1462 1463 1463 1463 1464
1401 1402 1403 1404 1405 1407 1408 1408 1409 1410 1411 1413 1414 1415 1417 1418 1420 1421 1423 1425 1427 1428 1430 1431 1432 1433 1433 1434 1435 1436 1437 1438 1439 1441 1442 1443 1444 1445 1446 1447 1447 1448 1449 1450 1450 1451 1452 1452 1452 1452 1453 1453 1454 1455 1456 1457 1457 1458 1458 1458 1459 1459 1459 1460 1460 1460 1461 1461 1462
1399 1400 1401 1402 1403 1404 1405 1406 1407 1408 1409 1411 1412 1413 1415 1417 1418 1420 1422 1424 1425 1427 1428 1429 1430 1431 1431 1432 1433 1434 1435 1436 1438 1439 1440 1441 1442 1443 1444 1445 1446 1447 1448 1448 1449 1450 1450 1451 1451 1451 1452 1453 1453 1454 1455 1455 1455 1456 1456 1456 1457 1457 1457 1458 1458 1458 1458 1459 1459
1397 1398 1399 1400 1401 1402 1403 1404 1405 1406 1408 1409 1411 1412 1413 1415 1417 1418 1420 1422 1424 1425 1426 1427 1428 1428 1429 1430 1431 1433 1434 1435 1436 1437 1438 1439 1440 1441 1442 1443 1444 1446 1447 1448 1448 1449 1449 1450 1450 1451 1451 1452 1452 1453 1453 1453 1453 1454 1454 1454 1455 1455 1455 1455 1456 1456 1456 1456 1457
1395 1396 1397 1398 1399 1401 1402 1403 1404 1405 1407 1408 1409 1411 1412 1414 1416 1418 1419 1421 1422 1423 1424 1425 1426 1427 1428 1429 1430 1431 1433 1433 1435 1436 1437 1438 1439 1440 1441 1442 1443 1444 1446 1446 1447 1448 1448 1448 1449 1449 1450 1450 1451 1451 1451 1452 1452 1452 1452 1453 1453 1453 1453 1453 1453 1453 1454 1454 1454